NJE3LC EDDP-EDDK

Flight info

Callsign NJE3LC
Flight time 0h 39m
Altitude 24000
Route ORTAG5Q ORTAG Q230 WRB P12 ESADU T858 KOPAG KOPAG1C
Aircraft C700/M-SBDGHM1RWXY/LB2

Departure

Time 2026-05-06 18:03
Airport Leipzig/Halle Airport (EDDP)

Arrival

Time 2026-05-06 18:43
Airport Cologne Bonn Airport (EDDK)
Time Latitude Longitude Altitude Speed Heading
2026-05-06 17:31 51.41814 12.22481 428 ft 0 kts 195°
2026-05-06 17:57 51.41812 12.22481 435 ft 2 kts 190°
2026-05-06 17:57 51.41785 12.22480 429 ft 5 kts 186°
2026-05-06 17:57 51.41747 12.22385 432 ft 17 kts 253°
2026-05-06 17:58 51.41770 12.22192 425 ft 19 kts 288°
2026-05-06 17:58 51.41813 12.21986 427 ft 18 kts 286°
2026-05-06 17:58 51.41851 12.21782 430 ft 20 kts 284°
2026-05-06 17:58 51.41879 12.21589 432 ft 18 kts 288°
2026-05-06 17:59 51.41917 12.21376 429 ft 22 kts 286°
2026-05-06 17:59 51.41963 12.21111 423 ft 27 kts 286°
2026-05-06 17:59 51.42010 12.20923 420 ft 15 kts 332°
2026-05-06 17:59 51.42116 12.20947 420 ft 16 kts 14°
2026-05-06 18:00 51.42230 12.21000 424 ft 16 kts 17°
2026-05-06 18:00 51.42334 12.21029 428 ft 15 kts 13°
2026-05-06 18:00 51.42431 12.21079 430 ft 15 kts 20°
2026-05-06 18:00 51.42541 12.21133 424 ft 18 kts 14°
2026-05-06 18:01 51.42653 12.21183 430 ft 17 kts 15°
2026-05-06 18:01 51.42778 12.21239 428 ft 21 kts 16°
2026-05-06 18:01 51.42905 12.21305 419 ft 15 kts 31°
2026-05-06 18:01 51.42982 12.21435 423 ft 16 kts 45°
2026-05-06 18:02 51.43062 12.21561 426 ft 17 kts 44°
2026-05-06 18:02 51.43130 12.21694 430 ft 14 kts 81°
2026-05-06 18:02 51.43133 12.21778 429 ft 7 kts 85°
2026-05-06 18:02 51.43134 12.21797 428 ft 0 kts 85°
2026-05-06 18:03 51.43146 12.22036 429 ft 64 kts 86°
2026-05-06 18:03 51.43194 12.23245 518 ft 146 kts 84°
2026-05-06 18:03 51.43289 12.24980 1446 ft 165 kts 75°
2026-05-06 18:03 51.44011 12.26516 2583 ft 191 kts 42°
2026-05-06 18:04 51.45030 12.28053 3862 ft 211 kts 41°
2026-05-06 18:04 51.46328 12.29328 5250 ft 227 kts 22°
2026-05-06 18:04 51.47880 12.30073 6658 ft 246 kts
2026-05-06 18:04 51.49761 12.30052 7006 ft 284 kts 346°
2026-05-06 18:05 51.51490 12.28972 7002 ft 251 kts 327°
2026-05-06 18:05 51.52858 12.27480 7061 ft 228 kts 322°
2026-05-06 18:05 51.54076 12.25899 8055 ft 227 kts 305°
2026-05-06 18:05 51.54573 12.23442 9008 ft 246 kts 266°
2026-05-06 18:06 51.54207 12.20627 9891 ft 269 kts 253°
2026-05-06 18:06 51.53779 12.17600 10678 ft 277 kts 259°
2026-05-06 18:06 51.53613 12.14547 11853 ft 280 kts 266°
2026-05-06 18:06 51.53549 12.11404 13266 ft 284 kts 265°
2026-05-06 18:07 51.53421 12.08199 14459 ft 291 kts 263°
2026-05-06 18:07 51.53261 12.04932 15675 ft 295 kts 264°
2026-05-06 18:07 51.53116 12.01614 16864 ft 301 kts 264°
2026-05-06 18:07 51.52972 11.98234 17978 ft 306 kts 264°
2026-05-06 18:08 51.52824 11.94809 18853 ft 306 kts 264°
2026-05-06 18:08 51.52670 11.91340 18991 ft 319 kts 264°
2026-05-06 18:08 51.52511 11.87798 18996 ft 318 kts 264°
2026-05-06 18:08 51.52351 11.84242 19001 ft 320 kts 263°
2026-05-06 18:09 51.52189 11.80686 19009 ft 319 kts 264°
2026-05-06 18:09 51.52033 11.77153 18989 ft 315 kts 264°
2026-05-06 18:09 51.51875 11.73613 18990 ft 319 kts 264°
2026-05-06 18:09 51.51711 11.70058 18991 ft 319 kts 263°
2026-05-06 18:10 51.51544 11.66506 18999 ft 320 kts 264°
2026-05-06 18:10 51.51381 11.62955 19122 ft 315 kts 263°
2026-05-06 18:10 51.51213 11.59419 19565 ft 323 kts 263°
2026-05-06 18:10 51.51043 11.55844 20012 ft 320 kts 263°
2026-05-06 18:11 51.50872 11.52226 20268 ft 329 kts 263°
2026-05-06 18:11 51.50756 11.49795 20274 ft 337 kts 263°
2026-05-06 18:11 51.50507 11.44647 21450 ft 347 kts 263°
2026-05-06 18:11 51.50330 11.40769 22500 ft 352 kts 264°
2026-05-06 18:12 51.50135 11.36757 23484 ft 358 kts 263°
2026-05-06 18:12 51.49923 11.32819 24346 ft 362 kts 263°
2026-05-06 18:12 51.49723 11.28750 25115 ft 370 kts 263°
2026-05-06 18:12 51.49525 11.24608 25952 ft 375 kts 263°
2026-05-06 18:13 51.49316 11.20421 26789 ft 379 kts 263°
2026-05-06 18:13 51.49097 11.16177 27608 ft 384 kts 263°
2026-05-06 18:13 51.48875 11.11851 27997 ft 395 kts 263°
2026-05-06 18:13 51.48845 11.07360 28003 ft 415 kts 271°
2026-05-06 18:14 51.49277 11.02704 28012 ft 440 kts 277°
2026-05-06 18:14 51.49858 10.97797 28012 ft 452 kts 277°
2026-05-06 18:14 51.51003 10.87797 28011 ft 457 kts 277°
2026-05-06 18:15 51.52130 10.77755 28011 ft 457 kts 277°
2026-05-06 18:15 51.53295 10.67713 28009 ft 457 kts 277°
2026-05-06 18:16 51.53672 10.57657 28008 ft 447 kts 265°
2026-05-06 18:16 51.53511 10.47639 28014 ft 448 kts 266°
2026-05-06 18:17 51.53382 10.39329 28014 ft 447 kts 265°
2026-05-06 18:17 51.53211 10.29324 28015 ft 448 kts 265°
2026-05-06 18:18 51.53037 10.19319 28018 ft 448 kts 265°
2026-05-06 18:18 51.52853 10.09347 28019 ft 444 kts 265°
2026-05-06 18:19 51.52660 9.99408 28023 ft 445 kts 265°
2026-05-06 18:19 51.52461 9.89487 28022 ft 444 kts 265°
2026-05-06 18:20 51.52251 9.79552 28025 ft 446 kts 265°
2026-05-06 18:20 51.52034 9.69590 28025 ft 446 kts 265°
2026-05-06 18:21 51.51801 9.59587 28024 ft 455 kts 266°
2026-05-06 18:21 51.51564 9.49471 28024 ft 454 kts 266°
2026-05-06 18:22 51.51315 9.39361 27893 ft 450 kts 266°
2026-05-06 18:22 51.51190 9.34419 27339 ft 436 kts 266°
2026-05-06 18:22 51.51067 9.29620 26772 ft 426 kts 266°
2026-05-06 18:23 51.50944 9.24902 26221 ft 421 kts 266°
2026-05-06 18:23 51.50817 9.20226 25669 ft 418 kts 266°
2026-05-06 18:23 51.50686 9.15583 25121 ft 414 kts 265°
2026-05-06 18:23 51.50259 9.11039 24578 ft 410 kts 256°
2026-05-06 18:24 51.49398 9.06697 24039 ft 407 kts 248°
2026-05-06 18:24 51.48270 9.02549 23519 ft 404 kts 246°
2026-05-06 18:24 51.47162 8.98415 22940 ft 401 kts 246°
2026-05-06 18:24 51.46073 8.94334 22411 ft 395 kts 246°
2026-05-06 18:25 51.44991 8.90329 21897 ft 389 kts 246°
2026-05-06 18:25 51.43928 8.86414 21390 ft 387 kts 246°
2026-05-06 18:25 51.42862 8.82476 20890 ft 384 kts 246°
2026-05-06 18:25 51.41806 8.78565 20379 ft 381 kts 246°
2026-05-06 18:26 51.40680 8.74690 20046 ft 388 kts 240°
2026-05-06 18:26 51.39292 8.70941 20048 ft 394 kts 239°
2026-05-06 18:26 51.37924 8.67122 20055 ft 396 kts 240°
2026-05-06 18:26 51.36563 8.63283 20071 ft 397 kts 240°
2026-05-06 18:27 51.35155 8.59392 20055 ft 408 kts 240°
2026-05-06 18:27 51.33717 8.55444 19908 ft 402 kts 247°
2026-05-06 18:27 51.33087 8.51299 19266 ft 392 kts 277°
2026-05-06 18:27 51.34169 8.47243 17702 ft 391 kts 302°
2026-05-06 18:28 51.35507 8.43592 17622 ft 390 kts 307°
2026-05-06 18:28 51.36785 8.39915 17259 ft 374 kts 287°
2026-05-06 18:28 51.37058 8.35842 16721 ft 368 kts 263°
2026-05-06 18:28 51.36303 8.31981 16186 ft 363 kts 243°
2026-05-06 18:29 51.34895 8.28653 15693 ft 360 kts 234°
2026-05-06 18:29 51.33387 8.25471 15200 ft 358 kts 233°
2026-05-06 18:29 51.31894 8.22304 14717 ft 355 kts 233°
2026-05-06 18:29 51.30446 8.19130 14241 ft 352 kts 234°
2026-05-06 18:30 51.29039 8.16043 13757 ft 334 kts 233°
2026-05-06 18:30 51.27688 8.13147 13228 ft 316 kts 233°
2026-05-06 18:30 51.26409 8.10396 12705 ft 303 kts 234°
2026-05-06 18:30 51.25183 8.07718 12174 ft 295 kts 234°
2026-05-06 18:31 51.23974 8.05117 11653 ft 290 kts 234°
2026-05-06 18:31 51.22781 8.02548 11135 ft 287 kts 234°
2026-05-06 18:31 51.21609 8.00005 10762 ft 284 kts 234°
2026-05-06 18:31 51.20434 7.97471 10390 ft 284 kts 234°
2026-05-06 18:32 51.19258 7.94941 10083 ft 282 kts 234°
2026-05-06 18:32 51.18100 7.92452 10073 ft 280 kts 234°
2026-05-06 18:32 51.16929 7.89933 10069 ft 284 kts 234°
2026-05-06 18:32 51.15754 7.87407 10064 ft 284 kts 234°
2026-05-06 18:33 51.14574 7.84876 10063 ft 285 kts 234°
2026-05-06 18:33 51.13391 7.82341 10065 ft 286 kts 234°
2026-05-06 18:33 51.12203 7.79801 10066 ft 286 kts 234°
2026-05-06 18:33 51.11004 7.77239 9741 ft 291 kts 234°
2026-05-06 18:34 51.09807 7.74678 9266 ft 285 kts 234°
2026-05-06 18:34 51.08631 7.72164 8785 ft 281 kts 234°
2026-05-06 18:34 51.07468 7.69691 8324 ft 277 kts 234°
2026-05-06 18:34 51.06322 7.67242 7860 ft 275 kts 234°
2026-05-06 18:35 51.05178 7.64812 7405 ft 273 kts 234°
2026-05-06 18:35 51.04046 7.62389 6954 ft 273 kts 234°
2026-05-06 18:35 51.02911 7.59981 6507 ft 272 kts 234°
2026-05-06 18:35 51.01791 7.57612 6147 ft 265 kts 234°
2026-05-06 18:36 51.00695 7.55291 5795 ft 261 kts 235°
2026-05-06 18:36 50.99573 7.53047 5449 ft 260 kts 229°
2026-05-06 18:36 50.97980 7.51947 5089 ft 260 kts 178°
2026-05-06 18:36 50.96185 7.51721 4910 ft 261 kts 202°
2026-05-06 18:37 50.94480 7.50722 4721 ft 264 kts 195°
2026-05-06 18:37 50.92717 7.49991 4529 ft 264 kts 182°
2026-05-06 18:37 50.90954 7.50753 4297 ft 263 kts 161°
2026-05-06 18:37 50.89157 7.51079 4122 ft 262 kts 188°
2026-05-06 18:38 50.87496 7.50010 3927 ft 257 kts 219°
2026-05-06 18:38 50.86463 7.47851 3691 ft 243 kts 251°
2026-05-06 18:38 50.86321 7.45277 3350 ft 234 kts 284°
2026-05-06 18:38 50.86906 7.42930 3047 ft 226 kts 299°
2026-05-06 18:39 50.87602 7.40764 3038 ft 218 kts 300°
2026-05-06 18:39 50.88303 7.38609 2867 ft 226 kts 300°
2026-05-06 18:39 50.88984 7.36526 2434 ft 197 kts 301°
2026-05-06 18:40 50.90141 7.32974 2322 ft 179 kts 297°
2026-05-06 18:40 50.90425 7.31042 2326 ft 183 kts 280°
2026-05-06 18:40 50.90579 7.29053 2330 ft 181 kts 281°
2026-05-06 18:40 50.90522 7.27015 1954 ft 189 kts 252°
2026-05-06 18:41 50.89884 7.25234 1702 ft 185 kts 246°
2026-05-06 18:41 50.89363 7.23379 1443 ft 181 kts 249°
2026-05-06 18:41 50.88853 7.21721 1182 ft 150 kts 246°
2026-05-06 18:41 50.88408 7.20318 981 ft 138 kts 248°
2026-05-06 18:42 50.88029 7.19005 807 ft 129 kts 248°
2026-05-06 18:42 50.87625 7.17728 638 ft 130 kts 248°
2026-05-06 18:42 50.87238 7.16441 454 ft 130 kts 249°
2026-05-06 18:42 50.86854 7.15154 294 ft 124 kts 251°
2026-05-06 18:43 50.86546 7.14122 253 ft 68 kts 244°
2026-05-06 18:43 50.86442 7.13793 249 ft 20 kts 245°
2026-05-06 18:43 50.86393 7.13634 247 ft 17 kts 244°
2026-05-06 18:43 50.86396 7.13442 246 ft 19 kts 303°
2026-05-06 18:44 50.86441 7.13371 245 ft 4 kts 315°
2026-05-06 18:44 50.86457 7.13346 244 ft 3 kts 315°
2026-05-06 18:44 50.86487 7.13306 244 ft 9 kts 320°
2026-05-06 18:44 50.86543 7.13224 243 ft 13 kts 311°
2026-05-06 18:45 50.86618 7.13116 241 ft 17 kts 318°
2026-05-06 18:45 50.86717 7.12975 237 ft 21 kts 316°
2026-05-06 18:45 50.86832 7.12804 234 ft 22 kts 318°
2026-05-06 18:45 50.86905 7.12700 231 ft 22 kts 318°
2026-05-06 18:46 50.87054 7.12487 227 ft 17 kts 316°
2026-05-06 18:46 50.87133 7.12366 226 ft 13 kts 316°
2026-05-06 18:46 50.87150 7.12358 228 ft 1 kts 59°
2026-05-06 18:46 50.87148 7.12401 226 ft 8 kts 96°
2026-05-06 18:47 50.87177 7.12484 226 ft 12 kts 46°
2026-05-06 18:47 50.87226 7.12566 226 ft 6 kts 37°
2026-05-06 18:47 50.87258 7.12536 228 ft 7 kts 317°
2026-05-06 18:47 50.87267 7.12523 226 ft 0 kts 317°